Terminal Aerodrome Forecast
Issued by NWS

Home | Current Version | Previous Version | Text Only | Print | Product List | Glossary On
Versions: 1 2 3 4 5 6 7 8 9 10 11 12 13 14 15 16 17 18 19 20 21 22 23 24 25 26 27 28
000
FTUS45 KREV 160500
TAFTRK
TAF
KTRK 160524Z 1606/1706 VRB03KT P6SM FEW020
     FM161900 22012G22KT 5SM HZ SCT020 SCT060
     FM170400 24008G18KT P6SM SKC
      AMD NOT SKED 1606/1612=

USA.gov is the U.S. government's official web portal to all federal, state and local government web resources and services.